2021-002D (47312 NORAD) Tracking and Keplerian Element Data
This shows tracking and keplerian element data for the satellite.
Feedback or suggestion? Click here.
Element | Value |
Catalog | 47312 |
Name | 2021-002D |
Epoch Orbit | 1330 |
Epoch Day | 105.63631788 |
Epoch Year | 2021 |
RAAN | 166.0376 |
Inclination | 60.6858 |
Eccentricity | 0.0026746 |
Argument of Perigee | 11.6402 |
Mean Anonmoly | 348.5297 |
Mean Motion | 15.22649712 |
Decay Rate | 0.00010046 |
L1 | 1 47312U 21002D 21105.63631788 .00010046 00000-0 43534-3 0 9996 |
L2 | 2 47312 60.6858 166.0376 0026746 11.6402 348.5297 15.22649712 13304 |
Live tracking and technical data element details for 2021-002D (NORAD 47312). 2021-002D can be tracked NOW for your location showing map with azimuth and elevation plus other details from your city location.
Track the satellite on the map from your city or location and see movement details for azimuth, elevation, latitude, longitude, range, height, and movement on the map or in text.
IsCatalogInMostPopularTable: catalog: 47312, numindb: 21
Update: records affected: 1
GetName: 47312 2021-002D
Hit Count: updated at: Fri, 16 Apr 2021 11:08:54 GMT